Home   Weather   Gambier Islands   Past weeks

Flag for French Polynesia Past Weather in Gambier Islands, French Polynesia — Yesterday and Last 2 Weeks

Now
75 °F

Overcast.


Feels Like: 76 °F
Forecast: 71 / 76 °F
Wind: 6 mph from Northeast

Location: Rikitea

Current Time: Sep 28, 2016 at 1:14:25 PM

Latest Report: Sep 28, 2016 at 12:00 PM


Visibility: 25 mi

Pressure: 30.06 "Hg

Humidity: 77%

Dew Point: 67 °F

Location of Gambier IslandsLocation

Past Weather in Gambier Islands — Graph

°F

Gambier Islands Temperature Yesterday

Maximum temperature yesterday: 79 °F (at 12:00 PM)
Minimum temperature yesterday: 71 °F (at 11:00 PM)
Average temperature yesterday: 74 °F

High & Low Weather Summary for the Past Weeks

 TemperatureHumidityPressure
High79 °F (Sep 27, 12:00 PM)97% (Sep 14, 9:00 AM)30.23 "Hg (Sep 14, 9:00 AM)
Low66 °F (Sep 17, 9:00 AM)52% (Sep 18, 9:00 AM)30.01 "Hg (Sep 23, 4:00 AM)
Average71 °F76%30.13 "Hg
* Reported Sep 13 11:00 AM — Sep 28 11:00 AM, Gambier Islands, Weather by CustomWeather, © 2016

Note: Actual official high and low records may vary slightly from our data, if they occured in-between our weather recording intervals... More about our weather records

Advertising

Gambier Islands Weather History for the Previous 24 Hours

Scroll right to see more
 ConditionsComfort  
Time TempWeatherWind HumidityBarometerVisibility
11:00 AM
Wed, Sep 28
76 °FOvercast.6 mph74%30.08 "Hg25 mi
10:00 AM76 °FPartly sunny.6 mph74%30.10 "Hg25 mi
9:00 AM76 °FMild.6 mph75%30.11 "HgN/A
8:00 AM75 °FPartly sunny.7 mph76%30.11 "Hg25 mi
7:00 AM73 °FMild.6 mph83%30.10 "HgN/A
6:00 AM70 °FPassing clouds.8 mph88%30.08 "Hg25 mi
5:00 AM70 °FMild.8 mph90%30.06 "HgN/A
4:00 AM71 °FMild.5 mph90%30.06 "HgN/A
3:00 AM71 °FMild.5 mph89%30.06 "HgN/A
2:00 AM71 °FMild.5 mph88%30.08 "HgN/A
1:00 AM71 °FMild.3 mph89%30.10 "HgN/A
12:00 AM71 °FMild.6 mph90%30.09 "HgN/A
11:00 PM
Tue, Sep 27
71 °FMild.7 mph90%30.09 "HgN/A
10:00 PM71 °FMild.7 mph93%30.09 "HgN/A
9:00 PM72 °FMild.7 mph92%30.10 "HgN/A
8:00 PM72 °FMild.6 mph92%30.09 "HgN/A
7:00 PM72 °FMild.3 mph90%30.09 "HgN/A
6:00 PM73 °FMild.2 mph88%30.08 "HgN/A
5:00 PM74 °FPassing clouds.2 mph86%30.05 "Hg25 mi
4:00 PM76 °FPassing clouds.5 mph80%30.04 "Hg25 mi
3:00 PM78 °FPassing clouds.3 mph76%30.04 "Hg25 mi
2:00 PM76 °FScattered clouds.5 mph79%30.04 "Hg25 mi
1:00 PM79 °FScattered clouds.5 mph78%30.06 "Hg25 mi
Weather by CustomWeather, © 2016

See weather overviewHow to use our weather pages